Weather History for KORC - December, 2013

Change the Weather History Date:

Monday, December 23, 2013

  Actual Average Record
Temperature  
Mean Temperature -5 °F -  
Max Temperature 1 °F 27 °F 45 °F (1950)
Min Temperature -11 °F 12 °F -11 °F (2013)
Degree Days  
Heating Degree Days 70    
Moisture  
Dew Point -16 °F    
Average Humidity 64    
Maximum Humidity 78    
Minimum Humidity 43    
Precipitation  
Precipitation 0.00 in - - ()
Sea Level Pressure  
Sea Level Pressure 30.46 in    
Wind  
Wind Speed 10 mph (WNW)    
Max Wind Speed 20 mph    
Max Gust Speed 23 mph    
Visibility 10 miles    
Events      
Averages and records for this station are not official NWS values.
T = Trace of Precipitation, MM = Missing Value Source: NWS Daily Summary

Daily Weather History Graph

Daily Weather History Graph

Search for Another Location

Airport or City:

Trip Planner

Search our weather history database for the weather conditions in past years. The results will help you decide how hot, cold, wet, or windy it might be!

Date:

Astronomy

Dec. 23, 2013 Rise Set
Actual Time 7:53 AM CST 4:53 PM CST
Civil Twilight 7:20 AM CST 5:26 PM CST
Nautical Twilight 6:45 AM CST 6:02 PM CST
Astronomical Twilight 6:10 AM CST 6:36 PM CST
Moon 11:13 PM CST (12/23) 11:10 AM CST (12/23)
Length of Visible Light 10h 05m
Length of Day
9h 00m
Waning Gibbous, 68% of the Moon is Illuminated
Dec 23
Waning Gibbous
Dec 25
Last Quarter
Jan 1
New
Jan 7
First Quarter
Jan 15
Full

Hourly Weather History & Observations

Time (CST) Temp. Windchill Dew Point Humidity Pressure Visibility Wind Dir Wind Speed Gust Speed Precip Events Conditions
12:15 AM -4.0 °F -17.8 °F -9.4 °F 78% 30.35 in 10.0 mi WNW 6.9 mph - N/A   Clear
12:35 AM -4.0 °F -19.0 °F -9.4 °F 78% 30.35 in 10.0 mi WNW 8.1 mph - N/A   Clear
12:55 AM -4.0 °F -17.8 °F -9.4 °F 78% 30.36 in 10.0 mi WNW 6.9 mph - N/A   Clear
1:15 AM -4.0 °F -17.8 °F -9.4 °F 78% 30.36 in 10.0 mi WNW 6.9 mph - N/A   Clear
1:35 AM -4.0 °F -21.2 °F -9.4 °F 78% 30.37 in 10.0 mi WNW 10.4 mph - N/A   Clear
1:55 AM -5.8 °F -24.4 °F -11.2 °F 77% 30.38 in 10.0 mi WNW 11.5 mph - N/A   Clear
2:15 AM -5.8 °F -22.4 °F -11.2 °F 77% 30.38 in 10.0 mi WNW 9.2 mph - N/A   Clear
2:35 AM -5.8 °F -22.4 °F -11.2 °F 77% 30.38 in 10.0 mi West 9.2 mph - N/A   Clear
2:55 AM -5.8 °F -24.4 °F -11.2 °F 77% 30.39 in 10.0 mi WNW 11.5 mph - N/A   Clear
3:15 AM -5.8 °F -26.0 °F -13.0 °F 71% 30.39 in 10.0 mi NW 13.8 mph - N/A   Clear
3:35 AM -7.6 °F -28.3 °F -13.0 °F 77% 30.39 in 10.0 mi NW 13.8 mph - N/A   Clear
3:55 AM -7.6 °F -29.8 °F -14.8 °F 71% 30.39 in 10.0 mi NW 16.1 mph - N/A   Clear
4:15 AM -7.6 °F -27.5 °F -14.8 °F 71% 30.40 in 10.0 mi NW 12.7 mph - N/A   Clear
4:35 AM -7.6 °F -24.6 °F -14.8 °F 71% 30.41 in 10.0 mi NW 9.2 mph - N/A   Clear
4:55 AM -9.4 °F -26.8 °F -16.6 °F 71% 30.42 in 10.0 mi WNW 9.2 mph - N/A   Clear
5:15 AM -9.4 °F -28.9 °F -16.6 °F 71% 30.42 in 10.0 mi WNW 11.5 mph - N/A   Clear
5:35 AM -9.4 °F -29.8 °F -16.6 °F 71% 30.43 in 10.0 mi NW 12.7 mph - N/A   Clear
5:55 AM -9.4 °F -27.9 °F -16.6 °F 71% 30.43 in 10.0 mi NW 10.4 mph - N/A   Clear
6:15 AM -11.2 °F -27.8 °F -16.6 °F 77% 30.44 in 10.0 mi WNW 8.1 mph - N/A   Clear
6:35 AM -9.4 °F -29.8 °F -18.4 °F 65% 30.44 in 10.0 mi WNW 12.7 mph - N/A   Clear
6:55 AM -11.2 °F -33.7 °F -18.4 °F 70% 30.44 in 10.0 mi WNW 15.0 mph - N/A   Clear
7:15 AM -11.2 °F -33.7 °F -18.4 °F 70% 30.45 in 10.0 mi WNW 15.0 mph - N/A   Clear
7:35 AM -11.2 °F -32.9 °F -18.4 °F 70% 30.46 in 10.0 mi WNW 13.8 mph - N/A   Clear
7:55 AM -11.2 °F -35.8 °F -18.4 °F 70% 30.46 in 10.0 mi WNW 18.4 mph - N/A   Clear
8:15 AM -11.2 °F -34.4 °F -18.4 °F 70% 30.46 in 10.0 mi NW 16.1 mph - N/A   Clear
8:35 AM -11.2 °F -35.8 °F -18.4 °F 70% 30.47 in 10.0 mi WNW 18.4 mph - N/A   Clear
8:55 AM -9.4 °F -33.5 °F -18.4 °F 65% 30.48 in 10.0 mi NW 18.4 mph 23.0 mph N/A   Clear
9:15 AM -9.4 °F -34.1 °F -18.4 °F 65% 30.49 in 10.0 mi NW 19.6 mph - N/A   Clear
9:35 AM -7.6 °F -30.5 °F -18.4 °F 59% 30.49 in 10.0 mi NW 17.3 mph 23.0 mph N/A   Clear
9:55 AM -7.6 °F -30.5 °F -18.4 °F 59% 30.50 in 10.0 mi WNW 17.3 mph - N/A   Clear
10:15 AM -7.6 °F -29.8 °F -18.4 °F 59% 30.51 in 10.0 mi WNW 16.1 mph - N/A   Clear
10:35 AM -5.8 °F -27.5 °F -16.6 °F 60% 30.51 in 10.0 mi NW 16.1 mph - N/A   Clear
10:55 AM -5.8 °F -26.0 °F -16.6 °F 60% 30.52 in 10.0 mi NW 13.8 mph - N/A   Clear
11:15 AM -4.0 °F -26.4 °F -16.6 °F 55% 30.51 in 10.0 mi NW 18.4 mph - N/A   Clear
11:35 AM -2.2 °F -23.5 °F -16.6 °F 50% 30.51 in 10.0 mi NW 17.3 mph 21.9 mph N/A   Clear
11:55 AM -2.2 °F -22.9 °F -14.8 °F 55% 30.50 in 10.0 mi WNW 16.1 mph - N/A   Clear
12:15 PM -0.4 °F -20.5 °F -14.8 °F 51% 30.50 in 10.0 mi WNW 16.1 mph - N/A   Clear
12:35 PM -0.4 °F -19.9 °F -14.8 °F 51% 30.49 in 10.0 mi NW 15.0 mph - N/A   Clear
12:55 PM -0.4 °F -17.6 °F -14.8 °F 51% 30.48 in 10.0 mi NW 11.5 mph 21.9 mph N/A   Clear
1:15 PM -0.4 °F -18.4 °F -16.6 °F 46% 30.48 in 10.0 mi NNW 12.7 mph 20.7 mph N/A   Clear
1:35 PM -0.4 °F -18.4 °F -14.8 °F 51% 30.48 in 10.0 mi NW 12.7 mph 18.4 mph N/A   Clear
1:55 PM 1.4 °F -13.5 °F -14.8 °F 47% 30.48 in 10.0 mi NW 9.2 mph - N/A   Clear
2:15 PM 1.4 °F -14.5 °F -16.6 °F 43% 30.48 in 10.0 mi NW 10.4 mph 16.1 mph N/A   Clear
2:35 PM 1.4 °F -16.1 °F -14.8 °F 47% 30.48 in 10.0 mi NW 12.7 mph 17.3 mph N/A   Clear
2:55 PM 1.4 °F -14.5 °F -16.6 °F 43% 30.48 in 10.0 mi NW 10.4 mph - N/A   Clear
3:15 PM 1.4 °F -16.1 °F -16.6 °F 43% 30.49 in 10.0 mi NW 12.7 mph - N/A   Clear
3:35 PM 1.4 °F -15.3 °F -16.6 °F 43% 30.49 in 10.0 mi NW 11.5 mph - N/A   Clear
3:55 PM -0.4 °F -15.7 °F -16.6 °F 46% 30.49 in 10.0 mi NW 9.2 mph - N/A   Clear
4:15 PM -0.4 °F -16.7 °F -16.6 °F 46% 30.50 in 10.0 mi NW 10.4 mph - N/A   Clear
4:35 PM -0.4 °F -19.2 °F -16.6 °F 46% 30.50 in 10.0 mi NW 13.8 mph - N/A   Clear
4:55 PM -2.2 °F -18.9 °F -16.6 °F 50% 30.50 in 10.0 mi NW 10.4 mph - N/A   Clear
5:15 PM -4.0 °F -17.8 °F -16.6 °F 55% 30.50 in 10.0 mi NW 6.9 mph - N/A   Clear
5:35 PM -5.8 °F -23.4 °F -14.8 °F 65% 30.50 in 10.0 mi NW 10.4 mph - N/A   Clear
5:55 PM -5.8 °F -19.9 °F -14.8 °F 65% 30.50 in 10.0 mi NW 6.9 mph - N/A   Clear
6:15 PM -7.6 °F -18.8 °F -14.8 °F 71% 30.51 in 10.0 mi NW 4.6 mph - N/A   Clear
6:35 PM -7.6 °F -20.6 °F -16.6 °F 65% 30.50 in 10.0 mi NW 5.8 mph - N/A   Clear
6:55 PM -9.4 °F -22.7 °F -16.6 °F 71% 30.50 in 10.0 mi WNW 5.8 mph - N/A   Clear
7:15 PM -9.4 °F -22.7 °F -16.6 °F 71% 30.50 in 10.0 mi WNW 5.8 mph - N/A   Clear
7:35 PM -9.4 °F -20.9 °F -16.6 °F 71% 30.50 in 10.0 mi WNW 4.6 mph - N/A   Clear
7:55 PM -9.4 °F -25.6 °F -16.6 °F 71% 30.50 in 10.0 mi NW 8.1 mph - N/A   Clear
8:15 PM -7.6 °F -23.4 °F -16.6 °F 65% 30.50 in 10.0 mi NW 8.1 mph - N/A   Clear
8:35 PM -9.4 °F -18.6 °F -18.4 °F 65% 30.49 in 10.0 mi NW 3.5 mph - N/A   Clear
8:55 PM -7.6 °F - -16.6 °F 65% 30.48 in 10.0 mi Calm Calm - N/A   Clear
9:15 PM -9.4 °F - -16.6 °F 71% 30.47 in 10.0 mi Calm Calm - N/A   Clear
9:35 PM -9.4 °F - -16.6 °F 71% 30.47 in 10.0 mi Calm Calm - N/A   Clear
9:55 PM -11.2 °F -20.6 °F -18.4 °F 70% 30.47 in 10.0 mi SSW 3.5 mph - N/A   Clear
10:15 PM -9.4 °F -18.6 °F -18.4 °F 65% 30.48 in 10.0 mi SW 3.5 mph - N/A   Clear
10:35 PM -9.4 °F -18.6 °F -18.4 °F 65% 30.47 in 10.0 mi West 3.5 mph - N/A   Clear
10:55 PM -9.4 °F - -18.4 °F 65% 30.47 in 10.0 mi Calm Calm - N/A   Clear
11:15 PM -9.4 °F - -16.6 °F 71% 30.45 in 10.0 mi Calm Calm - N/A   Clear
11:35 PM -9.4 °F - -18.4 °F 65% 30.45 in 10.0 mi Calm Calm - N/A   Clear
11:55 PM -9.4 °F - -18.4 °F 65% 30.46 in 10.0 mi Calm Calm - N/A   Clear